Terminal Aerodrome Forecast
Issued by NWS Pittsburgh, PA

Current Version | Previous Version | Graphics & Text | Print | Product List | Glossary On
Versions: 1 2 3 4 5 6 7 8 9 10 11 12 13 14 15 16 17 18 19 20 21 22 23 24 25 26 27 28 29 30 31 32 33 34
000
FTUS41 KPBZ 040459 AAD
TAFPIT
TAF AMD
KPIT 040459Z 0405/0506 26005KT P6SM BKN060
      TEMPO 0405/0407 BKN025
     FM040700 29005KT P6SM SKC
     FM041500 29009G15KT P6SM SCT050=

USA.gov is the U.S. government's official web portal to all federal, state and local government web resources and services.